Location: Unspecified
(0.0000°N, 0.0000°E)
Time: 11:22:01
(UTC+00:00)

Vanguard 1 Rocket - Visible Passes

Search period start: 06 July 2015 00:00
Search period end: 16 July 2015 00:00
Orbit: 654 x 4225 km, 34.3° (Epoch: 05 July)

Date Brightness Start Highest point End Pass type
(mag) Time Alt. Az. Time Alt. Az. Time Alt. Az.
06 Jul 11.0 01:11:37 41° ESE 01:11:37 41° ESE 01:29:44 10° ENE visible
06 Jul 10.5 03:28:54 49° SW 03:39:59 86° NW 04:02:50 10° NE visible
07 Jul 11.6 00:04:35 19° ESE 00:04:35 19° ESE 00:11:05 10° E visible
07 Jul 10.4 02:21:53 70° S 02:24:13 73° SE 02:49:20 10° ENE visible
07 Jul 10.8 04:39:12 22° WSW 04:58:42 54° NW 05:18:05 10° NE visible
08 Jul 10.8 01:14:51 48° ESE 01:14:51 48° ESE 01:34:05 10° ENE visible
08 Jul 10.5 03:32:08 48° WSW 03:43:05 74° NW 04:06:02 10° NE visible
09 Jul 11.4 00:07:45 23° E 00:07:45 23° E 00:16:23 10° E visible
09 Jul 10.3 02:25:02 79° SSW 02:27:19 85° SE 02:52:48 10° NE visible
09 Jul 10.9 04:42:20 19° W 05:02:07 45° NW 05:21:07 10° NNE visible
10 Jul 10.7 01:17:55 56° E 01:17:55 56° E 01:38:00 10° ENE visible
10 Jul 10.6 03:35:12 44° W 03:46:17 63° NW 04:09:06 10° NE visible
11 Jul 11.3 00:10:44 28° E 00:10:44 28° E 00:21:08 10° ENE visible
11 Jul 10.3 02:28:01 78° W 02:30:24 83° NW 02:56:01 10° NE visible
11 Jul 11.1 04:45:18 15° W 05:05:49 38° NNW 05:24:07 10° NNE visible
12 Jul 10.5 01:20:47 63° E 01:20:47 63° E 01:41:35 10° ENE visible
12 Jul 10.7 03:38:04 38° W 03:49:40 53° NNW 04:12:04 10° NE visible
13 Jul 11.2 00:13:32 32° E 00:13:32 32° E 00:25:21 10° ENE visible
13 Jul 10.3 02:30:48 69° WNW 02:33:36 71° NW 02:59:04 10° NE visible
13 Jul 11.3 04:48:05 11° W 05:09:50 32° NNW 05:27:12 10° NNE visible
13 Jul 11.8 23:06:13 11° E 23:06:13 11° E 23:06:54 10° E visible
14 Jul 10.5 01:23:29 67° ENE 01:23:29 67° ENE 01:44:52 10° NE visible
14 Jul 10.9 03:40:45 31° W 03:53:18 45° NNW 04:15:01 10° NE visible
15 Jul 11.0 00:16:08 37° ENE 00:16:08 37° ENE 00:29:10 10° ENE visible
15 Jul 10.5 02:33:24 58° WNW 02:36:57 60° NNW 03:02:00 10° NE visible
15 Jul 11.4 04:53:17 10° WNW 05:14:12 27° NNW 05:30:26 10° NNE visible
15 Jul 11.6 23:08:43 15° ENE 23:08:43 15° ENE 23:11:35 10° ENE visible
